Tracking 19795 objects as of 17-Jul-2019
HD Live streaming from Space Station
objects crossing your sky now

METEOR 2-17 DEB

Track METEOR 2-17 DEB now!
10-day predictions


NORAD ID: 28992
Int'l Code: 1988-005G
Perigee: 927.4 km
Apogee: 934.7 km
Inclination: 82.5 °
Period: 103.5 minutes
Semi major axis: 7302 km
RCS: 0.0128 m2 (small)
Launch date: January 30, 1988
Source: Commonwealth of Independent States (former USSR) (CIS)
Launch site: PLESETSK MISSILE AND SPACE COMPLEX (PKMTR)

Note: This is SATELLITE DEBRIS
aabbcc
Your satellite tracking list
Your tracking list is empty




NASA's NSSDC Master Catalog

Two Line Element Set (TLE):
1 28992U 88005G   19197.90086439  .00000333  00000-0  25167-3 0  9990
2 28992  82.5355 164.6964 0005029  17.1949  12.6119 13.91348681706819
Source of the keplerian elements: AFSPC